Simultaneous Nadir Overpasses (SNOs) Predictions

Prediction of SNOs between LANDSAT-8 and METOP-B Satellite Orbit:

Table of predicted SNOs for the next 14.0 days since TLE Epoch: 6/29/2019
Index Date (LANDSAT-8) Time (LANDSAT-8) Lat,Lon (LANDSAT-8) SZA (LANDSAT-8 ) Date (METOP-B) Time (METOP-B) Lat,Lon (METOP-B) SZA (METOP-B ) Distance(km) Time Diff (sec)
1 07/01/2019 14:06:50 -81.15,-171.24 119.83 07/01/2019 14:05:50 -81.15,-171.21 119.86 0.59 60
2 07/01/2019 14:56:16 81.16, -3.51 60.19 07/01/2019 14:56:30 81.15, -3.67 60.18 2.73 14
3 07/04/2019 09:41:06 -81.15,-104.81 119.63 07/04/2019 09:40:13 -81.14,-104.98 119.68 3.13 53
4 07/04/2019 10:30:32 81.15, 62.90 60.39 07/04/2019 10:30:52 81.16, 62.94 60.41 0.96 20
5 07/07/2019 05:15:21 -81.15, -38.39 119.38 07/07/2019 05:14:34 -81.15, -38.38 119.39 0.19 47
6 07/07/2019 06:04:46 81.17, 129.66 60.69 07/07/2019 06:05:13 81.17, 129.54 60.69 2.29 27
7 07/10/2019 00:49:37 -81.15, 28.01 119.07 07/10/2019 00:48:57 -81.14, 27.83 119.11 3.13 40
8 07/10/2019 01:39:02 81.17,-163.97 60.99 07/10/2019 01:39:35 81.17,-163.88 61.02 1.49 33
9 07/12/2019 20:23:53 -81.14, 94.38 118.72 07/12/2019 20:23:19 -81.15, 94.40 118.73 0.55 34




NCC Satellite Simultaneous Nadir Overpasses (SNOs) Prediction Service
